Storm Lake, IA

6:29 PM CDT on March 27, 2017 (GMT -0500)
Storm Lake Municipal

Weather History for KSLB - February, 2014

Change the Weather History Date:

Wednesday, February 5, 2014

  Actual Average Record
Temperature  
Mean Temperature -2 °F -  
Max Temperature 5 °F 29 °F 55 °F (2005)
Min Temperature -9 °F 14 °F -9 °F (2014)
Degree Days  
Heating Degree Days 67    
Moisture  
Dew Point -8 °F    
Average Humidity 69    
Maximum Humidity 78    
Minimum Humidity 61    
Precipitation  
Precipitation 0.00 in - - ()
Sea Level Pressure  
Sea Level Pressure 30.49 in    
Wind  
Wind Speed 20 mph (NNW)    
Max Wind Speed 26 mph    
Max Gust Speed 33 mph    
Visibility 7 miles    
Events Rain , Snow    
Averages and records for this station are not official NWS values.
T = Trace of Precipitation, MM = Missing Value Source: NWS Daily Summary

Daily Weather History Graph

Daily Weather History Graph

Search for Another Location

Airport or City:

Trip Planner

Search our weather history database for the weather conditions in past years. The results will help you decide how hot, cold, wet, or windy it might be!

Date:

Astronomy

Feb. 05, 2014 Rise Set
Actual Time 7:30 AM CST 5:39 PM CST
Civil Twilight 7:01 AM CST 6:09 PM CST
Nautical Twilight 6:27 AM CST 6:43 PM CST
Astronomical Twilight 5:54 AM CST 7:15 PM CST
Moon 10:36 AM CST (2/5) No Moon Set
Length of Visible Light 11h 08m
Length of Day
10h 09m
Waxing Crescent, 39% of the Moon is Illuminated
Feb 5
Waxing Crescent
Feb 6
First Quarter
Feb 14
Full
Feb 22
Last Quarter
Mar 1
New

Hourly Weather History & Observations

Time (CST) Temp. Windchill Dew Point Humidity Pressure Visibility Wind Dir Wind Speed Gust Speed Precip Events Conditions
12:15 AM -0.4 °F -23.8 °F -5.8 °F 78% 30.38 in 3.0 mi North 23.0 mph - N/A Rain Light Freezing Rain
12:35 AM -0.4 °F -24.7 °F -5.8 °F 78% 30.38 in 2.5 mi North 25.3 mph 32.2 mph N/A Rain Light Freezing Rain
12:55 AM -0.4 °F -25.2 °F -5.8 °F 78% 30.38 in 2.0 mi North 26.5 mph - N/A Rain Light Freezing Rain
1:15 AM -0.4 °F -24.3 °F -7.6 °F 72% 30.39 in 2.0 mi North 24.2 mph 33.4 mph N/A Rain Light Freezing Rain
1:35 AM -0.4 °F -23.8 °F -7.6 °F 72% 30.39 in 2.5 mi North 23.0 mph 31.1 mph N/A Rain Light Freezing Rain
1:55 AM -0.4 °F -24.7 °F -5.8 °F 78% 30.39 in 2.5 mi North 25.3 mph - N/A Rain Light Freezing Rain
2:20 AM -0.4 °F -23.8 °F -7.6 °F 72% 30.40 in 3.0 mi North 23.0 mph 31.1 mph N/A Rain Light Freezing Rain
2:35 AM -0.4 °F -23.3 °F -7.6 °F 72% 30.40 in 3.0 mi North 21.9 mph 29.9 mph N/A Rain Light Freezing Rain
2:55 AM -0.4 °F -22.8 °F -7.6 °F 72% 30.41 in 4.0 mi North 20.7 mph 32.2 mph N/A Rain Light Freezing Rain
3:15 AM -0.4 °F -24.3 °F -7.6 °F 72% 30.41 in 4.0 mi North 24.2 mph - N/A Rain Light Freezing Rain
3:35 AM -0.4 °F -23.8 °F -7.6 °F 72% 30.41 in 4.0 mi North 23.0 mph 31.1 mph N/A Rain Light Freezing Rain
3:55 AM -0.4 °F -24.3 °F -7.6 °F 72% 30.41 in 4.0 mi North 24.2 mph 31.1 mph N/A Rain Light Freezing Rain
4:15 AM -0.4 °F -24.7 °F -7.6 °F 72% 30.41 in 4.0 mi North 25.3 mph 32.2 mph N/A Rain Light Freezing Rain
4:35 AM -0.4 °F -24.3 °F -7.6 °F 72% 30.42 in 4.0 mi North 24.2 mph 31.1 mph N/A Rain Light Freezing Rain
4:55 AM -0.4 °F -23.3 °F -7.6 °F 72% 30.43 in 7.0 mi North 21.9 mph 28.8 mph N/A   Overcast
5:15 AM -0.4 °F -23.3 °F -7.6 °F 72% 30.44 in 4.0 mi North 21.9 mph 29.9 mph N/A Rain Light Freezing Rain
5:35 AM -0.4 °F -24.3 °F -7.6 °F 72% 30.45 in 4.0 mi North 24.2 mph 31.1 mph N/A Rain Light Freezing Rain
5:55 AM -0.4 °F -22.3 °F -9.4 °F 66% 30.45 in 5.0 mi North 19.6 mph 27.6 mph N/A Rain Light Freezing Rain
6:15 AM -0.4 °F -23.3 °F -9.4 °F 66% 30.45 in 6.0 mi North 21.9 mph - N/A Rain Light Freezing Rain
6:35 AM -0.4 °F -23.8 °F -9.4 °F 66% 30.46 in 6.0 mi North 23.0 mph 28.8 mph N/A   Haze
6:55 AM -0.4 °F -22.8 °F -7.6 °F 72% 30.47 in 5.0 mi North 20.7 mph 27.6 mph N/A Snow Light Snow
7:15 AM -0.4 °F -21.7 °F -7.6 °F 72% 30.47 in 4.0 mi NNW 18.4 mph 25.3 mph N/A Snow Light Snow
7:35 AM -0.4 °F -22.3 °F -7.6 °F 72% 30.48 in 5.0 mi North 19.6 mph - N/A Snow Light Snow
7:55 AM -0.4 °F -22.3 °F -7.6 °F 72% 30.48 in 8.0 mi NNW 19.6 mph - N/A   Overcast
8:15 AM -0.4 °F -21.2 °F -7.6 °F 72% 30.50 in 9.0 mi NNW 17.3 mph - N/A   Overcast
8:35 AM -0.4 °F -20.5 °F -7.6 °F 72% 30.50 in 6.0 mi NNW 16.1 mph - N/A   Haze
8:55 AM -0.4 °F -22.3 °F -7.6 °F 72% 30.51 in 7.0 mi NNW 19.6 mph - N/A Snow Light Snow
9:15 AM 1.4 °F -18.2 °F -7.6 °F 66% 30.51 in 5.0 mi NNW 16.1 mph - N/A Snow Light Snow
9:35 AM 1.4 °F -19.4 °F -5.8 °F 72% 30.52 in 7.0 mi NNW 18.4 mph - N/A   Mostly Cloudy
9:55 AM 1.4 °F -19.4 °F -5.8 °F 72% 30.52 in 9.0 mi NNW 18.4 mph - N/A   Mostly Cloudy
10:15 AM 1.4 °F -19.4 °F -7.6 °F 66% 30.51 in 9.0 mi NNW 18.4 mph 26.5 mph N/A   Mostly Cloudy
10:35 AM 3.2 °F -18.1 °F -5.8 °F 66% 30.52 in 9.0 mi NNW 20.7 mph - N/A   Scattered Clouds
10:55 AM 3.2 °F -18.1 °F -5.8 °F 66% 30.53 in 7.0 mi NNW 20.7 mph - N/A   Scattered Clouds
11:15 AM 3.2 °F -19.0 °F -5.8 °F 66% 30.53 in 9.0 mi NNW 23.0 mph - N/A   Scattered Clouds
11:35 AM 3.2 °F -17.6 °F -5.8 °F 66% 30.53 in 8.0 mi NNW 19.6 mph 25.3 mph N/A   Mostly Cloudy
11:55 AM 5.0 °F -15.7 °F -5.8 °F 61% 30.52 in 9.0 mi NNW 20.7 mph 26.5 mph N/A   Mostly Cloudy
12:15 PM 3.2 °F -18.1 °F -5.8 °F 66% 30.52 in 6.0 mi NNW 20.7 mph - N/A   Haze
12:35 PM 5.0 °F -15.7 °F -5.8 °F 61% 30.52 in 6.0 mi NNW 20.7 mph - N/A   Haze
12:55 PM 5.0 °F -13.6 °F -5.8 °F 61% 30.52 in 7.0 mi NNW 16.1 mph 23.0 mph N/A Snow Light Snow
1:15 PM 5.0 °F -15.2 °F -5.8 °F 61% 30.51 in 10.0 mi NW 19.6 mph 28.8 mph N/A   Mostly Cloudy
1:35 PM 5.0 °F -16.2 °F -5.8 °F 61% 30.50 in 8.0 mi NNW 21.9 mph 29.9 mph N/A   Mostly Cloudy
1:55 PM 3.2 °F -18.1 °F -5.8 °F 66% 30.50 in 8.0 mi NNW 20.7 mph - N/A   Mostly Cloudy
2:15 PM 3.2 °F -19.0 °F -7.6 °F 61% 30.50 in 9.0 mi NNW 23.0 mph - N/A   Mostly Cloudy
2:35 PM 3.2 °F -17.6 °F -7.6 °F 61% 30.51 in 8.0 mi NW 19.6 mph - N/A Snow Light Snow
2:55 PM 3.2 °F -17.6 °F -5.8 °F 66% 30.50 in 8.0 mi NNW 19.6 mph - N/A   Mostly Cloudy
3:15 PM 3.2 °F -17.6 °F -7.6 °F 61% 30.51 in 9.0 mi NNW 19.6 mph 26.5 mph N/A   Scattered Clouds
3:35 PM 3.2 °F -18.6 °F -7.6 °F 61% 30.52 in 10.0 mi NNW 21.9 mph - N/A   Mostly Cloudy
3:55 PM 3.2 °F -17.1 °F -7.6 °F 61% 30.52 in 9.0 mi NW 18.4 mph - N/A   Mostly Cloudy
4:15 PM 3.2 °F -19.5 °F -7.6 °F 61% 30.52 in 8.0 mi NNW 24.2 mph - N/A   Scattered Clouds
4:35 PM 3.2 °F -17.1 °F -5.8 °F 66% 30.53 in 6.0 mi NNW 18.4 mph 25.3 mph N/A   Haze
4:55 PM 1.4 °F -18.2 °F -5.8 °F 72% 30.53 in 8.0 mi NNW 16.1 mph - N/A   Scattered Clouds
5:15 PM 1.4 °F -19.4 °F -5.8 °F 72% 30.53 in 10.0 mi NW 18.4 mph - N/A   Scattered Clouds
5:35 PM -0.4 °F -19.2 °F -7.6 °F 72% 30.53 in 10.0 mi NW 13.8 mph - N/A   Partly Cloudy
5:55 PM -0.4 °F -18.4 °F -7.6 °F 72% 30.54 in 10.0 mi NW 12.7 mph - N/A   Mostly Cloudy
6:15 PM -2.2 °F -18.0 °F -7.6 °F 78% 30.55 in 10.0 mi NW 9.2 mph - N/A   Mostly Cloudy
6:35 PM -2.2 °F -20.7 °F -9.4 °F 71% 30.55 in 10.0 mi NW 12.7 mph - N/A   Partly Cloudy
6:55 PM -2.2 °F -18.9 °F -11.2 °F 66% 30.55 in 10.0 mi NW 10.4 mph - N/A   Clear
7:15 PM -2.2 °F -18.9 °F -11.2 °F 66% 30.54 in 10.0 mi NW 10.4 mph - N/A   Clear
7:35 PM -4.0 °F -19.0 °F -11.2 °F 71% 30.54 in 10.0 mi NW 8.1 mph - N/A   Clear
7:55 PM -4.0 °F -20.2 °F -11.2 °F 71% 30.54 in 10.0 mi NW 9.2 mph - N/A   Clear
8:15 PM -4.0 °F -21.2 °F -11.2 °F 71% 30.54 in 10.0 mi NW 10.4 mph - N/A   Clear
8:35 PM -4.0 °F -22.1 °F -11.2 °F 71% 30.53 in 10.0 mi NW 11.5 mph - N/A   Clear
8:55 PM -4.0 °F -21.2 °F -11.2 °F 71% 30.53 in 10.0 mi NW 10.4 mph - N/A   Clear
9:15 PM -4.0 °F -22.1 °F -11.2 °F 71% 30.53 in 10.0 mi NW 11.5 mph - N/A   Clear
9:35 PM -4.0 °F -22.1 °F -11.2 °F 71% 30.53 in 10.0 mi NW 11.5 mph - N/A   Clear
9:55 PM -4.0 °F -22.1 °F -11.2 °F 71% 30.54 in 10.0 mi NW 11.5 mph - N/A   Clear
10:15 PM -4.0 °F -21.2 °F -11.2 °F 71% 30.54 in 10.0 mi NW 10.4 mph - N/A   Clear
10:35 PM -5.8 °F -22.4 °F -13.0 °F 71% 30.54 in 10.0 mi WNW 9.2 mph - N/A   Clear
10:55 PM -7.6 °F -25.7 °F -14.8 °F 71% 30.53 in 10.0 mi WNW 10.4 mph - N/A   Clear
11:15 PM -7.6 °F -26.6 °F -14.8 °F 71% 30.53 in 10.0 mi WNW 11.5 mph - N/A   Clear
11:35 PM -9.4 °F -28.9 °F -16.6 °F 71% 30.53 in 10.0 mi West 11.5 mph - N/A   Clear
11:55 PM -9.4 °F -27.9 °F -16.6 °F 71% 30.53 in 10.0 mi West 10.4 mph - N/A   Clear